Location: Hanover
(52.3667°N, 9.7167°E)
Time: 05:25:46
(UTC+02:00)

Envisat - Pass Details

Date: 24 September 2024
Orbit: 762 x 764 km, 98.3° (Epoch: 04 October)

Event Time Altitude Azimuth Distance (km) Brightness Sun altitude
Rises 05:24:00 0° 11° (N) 3,240 6.7 -16.8°
Reaches altitude 10° 05:26:22 10° 6° (N) 2,310 5.8 -16.4°
Maximum altitude 05:31:14 48° 293° (WNW) 1,002 3.3 -15.7°
Enters shadow 05:34:11 22° 230° (SW) 1,611 4.1 -15.3°
